QBEE50-LTU-OC (42708 NORAD) Tracking and Keplerian Element Data

This shows tracking and keplerian element data for the satellite.

Feedback or suggestion? Click here.




ElementValue
Catalog42708
NameQBEE50-LTU-OC
Epoch Orbit8552
Epoch Day318.19131613
Epoch Year2018
RAAN303.0755
Inclination51.6287
Eccentricity0.0003929
Argument of Perigee72.1196
Mean Anonmoly288.0235
Mean Motion15.82807418
Decay Rate0.00066254
L11 42708U 98067LR 18318.19131613 .00066254 00000-0 30708-3 0 9991
L22 42708 51.6287 303.0755 0003929 72.1196 288.0235 15.82807418 85526

Live tracking and technical data element details for QBEE50-LTU-OC (NORAD 42708). QBEE50-LTU-OC can be tracked NOW for your location showing map with azimuth and elevation plus other details from your city location.

Track the satellite on the map from your city or location and see movement details for azimuth, elevation, latitude, longitude, range, height, and movement on the map or in text.







IsCatalogInMostPopularTable: catalog: 42708, numindb: 167
Update: records affected: 1



GetName: 42708 QBEE50-LTU-OC

Hit Count: updated at: Fri, 16 Nov 2018 05:23:33 GMT